| time (UTC) | temp F | wind direction | speed knots | gust knots | rain 1hr in | rain 24hr in | rain mn in | humidity % | barometer mb |
| 20260506211505 | 60 | 329 | 2.6 | 6.1 | 0.00 | 0.00 | 0.00 | 82 | 1013.3 |
| 20260506211007 | 60 | 337 | 2.6 | 8.7 | 0.00 | 0.00 | 0.00 | 82 | 1013.2 |
| 20260506210506 | 60 | 332 | 1.7 | 8.7 | 0.00 | 0.00 | 0.00 | 82 | 1013.3 |
| 20260506210010 | 61 | 1 | 2.6 | 8.7 | 0.00 | 0.00 | 0.00 | 82 | 1013.2 |
| 20260506205509 | 60 | 328 | 2.6 | 7.8 | 0.00 | 0.00 | 0.00 | 83 | 1013.0 |
| 20260506205007 | 60 | 8 | 1.7 | 8.7 | 0.00 | 0.00 | 0.00 | 82 | 1013.3 |
| 20260506204506 | 60 | 18 | 3.5 | 8.7 | 0.00 | 0.00 | 0.00 | 82 | 1013.3 |
| 20260506204004 | 60 | 16 | 3.5 | 9.6 | 0.00 | 0.00 | 0.00 | 82 | 1013.2 |
| 20260506203504 | 60 | 314 | 3.5 | 9.6 | 0.00 | 0.00 | 0.00 | 82 | 1013.3 |
| 20260506203004 | 60 | 340 | 2.6 | 9.6 | 0.00 | 0.00 | 0.00 | 81 | 1013.4 |
| 20260506202503 | 61 | 359 | 3.5 | 9.6 | 0.00 | 0.00 | 0.00 | 81 | 1013.4 |
| 20260506202007 | 61 | 14 | 2.6 | 8.7 | 0.00 | 0.00 | 0.00 | 82 | 1013.2 |
| 20260506201506 | 60 | 277 | 2.6 | 8.7 | 0.00 | 0.00 | 0.00 | 83 | 1013.1 |
| 20260506201008 | 60 | 329 | 3.5 | 8.7 | 0.00 | 0.00 | 0.00 | 82 | 1013.2 |
| 20260506200507 | 60 | 338 | 1.7 | 7.0 | 0.00 | 0.00 | 0.00 | 83 | 1013.1 |
| 20260506200005 | 60 | 339 | 2.6 | 7.8 | 0.00 | 0.00 | 0.00 | 82 | 1013.2 |
| 20260506195506 | 61 | 1 | 3.5 | 7.8 | 0.00 | 0.00 | 0.00 | 81 | 1013.3 |
| 20260506195009 | 61 | 8 | 2.6 | 10.4 | 0.00 | 0.00 | 0.00 | 81 | 1013.2 |
| 20260506194508 | 61 | 318 | 4.3 | 10.4 | 0.00 | 0.00 | 0.00 | 80 | 1013.2 |
| 20260506194008 | 62 | 338 | 1.7 | 9.6 | 0.00 | 0.00 | 0.00 | 81 | 1013.2 |
| 20260506193512 | 62 | 347 | 1.7 | 9.6 | 0.00 | 0.00 | 0.00 | 81 | 1013.0 |
| 20260506193005 | 62 | 359 | 3.5 | 7.8 | 0.00 | 0.00 | 0.00 | 81 | 1013.2 |
| 20260506192504 | 62 | 299 | 2.6 | 7.8 | 0.00 | 0.00 | 0.00 | 80 | 1013.1 |
| 20260506192004 | 63 | 332 | 1.7 | 7.8 | 0.00 | 0.00 | 0.00 | 81 | 1013.2 |
| 20260506191506 | 63 | 134 | 1.7 | 7.8 | 0.00 | 0.00 | 0.00 | 82 | 1013.2 |
| 20260506191005 | 63 | 341 | 1.7 | 6.1 | 0.00 | 0.00 | 0.00 | 81 | 1013.2 |
| 20260506190504 | 64 | 260 | 2.6 | 6.1 | 0.00 | 0.00 | 0.00 | 81 | 1013.1 |
| 20260506190023 | 64 | 5 | 2.6 | 7.0 | 0.00 | 0.00 | 0.00 | 81 | 1013.1 |
| 20260506185508 | 64 | 311 | 1.7 | 7.0 | 0.00 | 0.00 | 0.00 | 82 | 1013.1 |
| 20260506185008 | 64 | 271 | 1.7 | 7.0 | 0.00 | 0.00 | 0.00 | 82 | 1013.0 |
| 20260506184516 | 65 | 342 | 1.7 | 7.8 | 0.00 | 0.00 | 0.00 | 81 | 1012.9 |
| 20260506184013 | 65 | 278 | 3.5 | 7.8 | 0.00 | 0.00 | 0.00 | 80 | 1012.9 |
| 20260506183505 | 66 | 321 | 2.6 | 7.8 | 0.00 | 0.00 | 0.00 | 80 | 1013.0 |
| 20260506183010 | 67 | 265 | 2.6 | 6.1 | 0.00 | 0.00 | 0.00 | 79 | 1012.9 |
| 20260506182507 | 69 | 310 | 1.7 | 7.0 | 0.00 | 0.00 | 0.00 | 77 | 1012.9 |
| 20260506182004 | 69 | 308 | 2.6 | 7.8 | 0.00 | 0.00 | 0.00 | 76 | 1012.8 |
| 20260506181515 | 70 | 350 | 3.5 | 8.7 | 0.00 | 0.00 | 0.00 | 75 | 1012.7 |
| 20260506181008 | 70 | 11 | 3.5 | 8.7 | 0.00 | 0.00 | 0.00 | 76 | 1012.7 |
| 20260506180505 | 70 | 321 | 1.7 | 7.8 | 0.00 | 0.00 | 0.00 | 76 | 1012.6 |
| 20260506180010 | 71 | 343 | 3.5 | 7.8 | 0.00 | 0.00 | 0.00 | 76 | 1012.5 |
| 20260506175506 | 70 | 347 | 3.5 | 7.8 | 0.00 | 0.00 | 0.00 | 76 | 1012.4 |
| 20260506175006 | 70 | 17 | 1.7 | 7.8 | 0.00 | 0.00 | 0.00 | 77 | 1012.5 |
| 20260506174515 | 70 | 340 | 2.6 | 7.0 | 0.00 | 0.00 | 0.00 | 75 | 1012.3 |
| 20260506174004 | 69 | 30 | 4.3 | 7.0 | 0.00 | 0.00 | 0.00 | 77 | 1012.1 |
| 20260506173505 | 69 | 15 | 1.7 | 7.0 | 0.00 | 0.00 | 0.00 | 79 | 1012.2 |
| 20260506173019 | 68 | 34 | 1.7 | 7.0 | 0.00 | 0.00 | 0.00 | 79 | 1012.2 |
| 20260506172506 | 68 | 6 | 3.5 | 7.0 | 0.00 | 0.00 | 0.00 | 80 | 1012.2 |
| 20260506172006 | 67 | 71 | 1.7 | 7.0 | 0.00 | 0.00 | 0.00 | 79 | 1012.2 |
| 20260506171520 | 67 | 13 | 2.6 | 8.7 | 0.00 | 0.00 | 0.00 | 81 | 1012.1 |
| 20260506171009 | 67 | 8 | 3.5 | 8.7 | 0.00 | 0.00 | 0.00 | 81 | 1012.1 |
| 20260506170505 | 66 | 15 | 1.7 | 8.7 | 0.00 | 0.00 | 0.00 | 81 | 1012.1 |
| 20260506170021 | 66 | 6 | 3.5 | 7.8 | 0.00 | 0.00 | 0.00 | 81 | 1012.1 |
| 20260506165508 | 66 | 8 | 2.6 | 7.8 | 0.00 | 0.00 | 0.00 | 83 | 1012.2 |
| 20260506165004 | 65 | 18 | 3.5 | 8.7 | 0.00 | 0.00 | 0.00 | 83 | 1012.0 |
| 20260506164511 | 65 | 35 | 3.5 | 8.7 | 0.00 | 0.00 | 0.00 | 84 | 1012.2 |
| 20260506164005 | 64 | 13 | 2.6 | 8.7 | 0.00 | 0.00 | 0.00 | 84 | 1012.1 |
| 20260506163504 | 64 | 15 | 2.6 | 7.0 | 0.00 | 0.00 | 0.00 | 85 | 1012.5 |
| 20260506163014 | 63 | 24 | 3.5 | 7.8 | 0.00 | 0.00 | 0.00 | 87 | 1012.6 |
| 20260506162505 | 62 | 13 | 2.6 | 7.8 | 0.00 | 0.00 | 0.00 | 90 | 1012.8 |
| 20260506162007 | 61 | 11 | 2.6 | 9.6 | 0.00 | 0.00 | 0.00 | 91 | 1013.0 |
| 20260506161518 | 59 | 20 | 2.6 | 9.6 | 0.00 | 0.00 | 0.00 | 90 | 1012.4 |
| 20260506161008 | 59 | 13 | 1.7 | 9.6 | 0.00 | 0.00 | 0.00 | 90 | 1012.9 |
| 20260506160510 | 59 | 4 | 4.3 | 10.4 | 0.00 | 0.00 | 0.00 | 90 | 1013.5 |
| 20260506160024 | 59 | 30 | 3.5 | 12.2 | 0.00 | 0.00 | 0.00 | 90 | 1013.8 |
| 20260506155510 | 59 | 38 | 6.1 | 12.2 | 0.00 | 0.00 | 0.00 | 90 | 1013.7 |
| 20260506155006 | 59 | 5 | 6.1 | 12.2 | 0.00 | 0.00 | 0.00 | 89 | 1013.6 |
| 20260506154528 | 60 | 13 | 6.1 | 12.2 | 0.00 | 0.00 | 0.00 | 89 | 1013.7 |
| 20260506154004 | 60 | 27 | 6.1 | 12.2 | 0.00 | 0.00 | 0.00 | 89 | 1013.9 |
| 20260506153503 | 60 | 336 | 2.6 | 10.4 | 0.00 | 0.00 | 0.00 | 90 | 1014.0 |
| 20260506153012 | 61 | 15 | 5.2 | 10.4 | 0.00 | 0.00 | 0.00 | 89 | 1013.7 |
| 20260506152505 | 61 | 11 | 3.5 | 13.0 | 0.00 | 0.00 | 0.00 | 89 | 1013.7 |
| 20260506152007 | 62 | 1 | 3.5 | 13.0 | 0.00 | 0.00 | 0.00 | 90 | 1013.4 |
| 20260506151517 | 62 | 1 | 5.2 | 13.0 | 0.00 | 0.00 | 0.00 | 89 | 1013.6 |
| 20260506151009 | 62 | 17 | 5.2 | 13.0 | 0.00 | 0.00 | 0.00 | 90 | 1013.1 |
| 20260506150509 | 62 | 5 | 3.5 | 11.3 | 0.00 | 0.00 | 0.00 | 90 | 1012.9 |
| 20260506150023 | 62 | 5 | 3.5 | 10.4 | 0.00 | 0.00 | 0.00 | 90 | 1012.3 |
| 20260506145508 | 62 | 9 | 5.2 | 13.0 | 0.00 | 0.00 | 0.00 | 89 | 1012.2 |
| 20260506145007 | 63 | 345 | 7.0 | 13.0 | 0.00 | 0.00 | 0.00 | 89 | 1012.2 |
| 20260506144526 | 63 | 360 | 6.1 | 15.6 | 0.00 | 0.00 | 0.00 | 89 | 1011.8 |
| 20260506144010 | 64 | 359 | 3.5 | 15.6 | 0.00 | 0.00 | 0.00 | 89 | 1011.7 |
| 20260506143510 | 64 | 11 | 7.0 | 13.0 | 0.00 | 0.00 | 0.00 | 89 | 1011.7 |
| 20260506143031 | 65 | 349 | 6.1 | 12.2 | 0.00 | 0.00 | 0.00 | 89 | 1011.7 |
| 20260506142508 | 65 | 5 | 3.5 | 10.4 | 0.00 | 0.00 | 0.00 | 89 | 1011.8 |
| 20260506142007 | 66 | 18 | 5.2 | 9.6 | 0.00 | 0.00 | 0.00 | 89 | 1011.3 |
| 20260506141512 | 66 | 359 | 4.3 | 8.7 | 0.00 | 0.00 | 0.00 | 89 | 1011.1 |
| 20260506141011 | 67 | 351 | 3.5 | 9.6 | 0.00 | 0.00 | 0.00 | 89 | 1011.1 |
| 20260506140512 | 67 | 333 | 3.5 | 9.6 | 0.00 | 0.00 | 0.00 | 89 | 1010.9 |
| 20260506140020 | 68 | 1 | 4.3 | 12.2 | 0.00 | 0.00 | 0.00 | 89 | 1010.9 |
| 20260506135506 | 70 | 3 | 4.3 | 12.2 | 0.00 | 0.00 | 0.00 | 88 | 1011.2 |
| 20260506135012 | 73 | 8 | 3.5 | 8.7 | 0.00 | 0.00 | 0.00 | 89 | 1010.9 |
| 20260506134527 | 74 | 78 | 1.7 | 4.3 | 0.00 | 0.00 | 0.00 | 92 | 1010.6 |
| 20260506134010 | 74 | 80 | 1.7 | 3.5 | 0.00 | 0.00 | 0.00 | 92 | 1010.4 |
| 20260506133509 | 74 | 81 | 0.0 | 0.9 | 0.00 | 0.00 | 0.00 | 93 | 1010.1 |
| 20260506133024 | 74 | 81 | 0.0 | 2.6 | 0.00 | 0.00 | 0.00 | 93 | 1010.3 |
| 20260506132511 | 73 | 81 | 0.0 | 2.6 | 0.00 | 0.00 | 0.00 | 93 | 1010.3 |
| 20260506132012 | 73 | 81 | 0.0 | 3.5 | 0.00 | 0.00 | 0.00 | 93 | 1010.3 |
| 20260506131528 | 73 | 81 | 0.9 | 3.5 | 0.00 | 0.00 | 0.00 | 93 | 1010.2 |
| 20260506131008 | 73 | 81 | 0.9 | 3.5 | 0.00 | 0.00 | 0.00 | 93 | 1010.2 |
| 20260506130505 | 73 | 139 | 0.0 | 1.7 | 0.00 | 0.00 | 0.00 | 93 | 1009.9 |
| 20260506130020 | 73 | 139 | 0.0 | 1.7 | 0.00 | 0.00 | 0.00 | 93 | 1009.7 |
| 20260506125508 | 73 | 139 | 0.0 | 2.6 | 0.00 | 0.00 | 0.00 | 93 | 1009.8 |
| 20260506125008 | 73 | 139 | 0.0 | 2.6 | 0.00 | 0.00 | 0.00 | 93 | 1009.8 |
| 20260506124522 | 73 | 140 | 0.0 | 1.7 | 0.00 | 0.00 | 0.00 | 93 | 1009.7 |
| 20260506124010 | 72 | 140 | 0.0 | 0.0 | 0.00 | 0.00 | 0.00 | 93 | 1009.5 |
| 20260506123512 | 72 | 140 | 0.0 | 0.0 | 0.00 | 0.00 | 0.00 | 93 | 1009.6 |
| 20260506123026 | 72 | 140 | 0.0 | 1.7 | 0.00 | 0.00 | 0.00 | 93 | 1009.6 |
| 20260506122507 | 72 | 140 | 0.0 | 1.7 | 0.00 | 0.00 | 0.00 | 93 | 1009.5 |
| 20260506122014 | 72 | 140 | 0.0 | 1.7 | 0.00 | 0.00 | 0.00 | 93 | 1009.4 |
| 20260506121514 | 72 | 140 | 0.0 | 0.9 | 0.00 | 0.00 | 0.00 | 93 | 1009.5 |
| 20260506121010 | 71 | 140 | 0.0 | 0.9 | 0.00 | 0.00 | 0.00 | 93 | 1009.4 |
| 20260506120512 | 71 | 140 | 0.0 | 0.9 | 0.00 | 0.00 | 0.00 | 92 | 1009.5 |
| 20260506120026 | 71 | 140 | 0.0 | 0.0 | 0.00 | 0.00 | 0.00 | 92 | 1009.5 |
| 20260506115514 | 72 | 141 | 0.0 | 0.0 | 0.00 | 0.00 | 0.00 | 92 | 1009.4 |
| 20260506115006 | 72 | 140 | 0.0 | 0.9 | 0.00 | 0.00 | 0.00 | 92 | 1009.5 |
| 20260506114520 | 72 | 140 | 0.0 | 0.9 | 0.00 | 0.00 | 0.00 | 92 | 1009.4 |
| 20260506114007 | 72 | 140 | 0.0 | 1.7 | 0.00 | 0.00 | 0.00 | 92 | 1009.4 |
| 20260506113507 | 72 | 140 | 0.0 | 1.7 | 0.00 | 0.00 | 0.00 | 92 | 1009.3 |
| 20260506113022 | 72 | 140 | 0.0 | 1.7 | 0.00 | 0.00 | 0.00 | 92 | 1009.4 |
| 20260506112512 | 72 | 140 | 0.0 | 1.7 | 0.00 | 0.00 | 0.00 | 92 | 1009.5 |
| 20260506112003 | 73 | 140 | 0.0 | 1.7 | 0.00 | 0.00 | 0.00 | 92 | 1009.6 |
| 20260506111505 | 73 | 140 | 0.0 | 2.6 | 0.00 | 0.00 | 0.00 | 91 | 1009.5 |
| 20260506111004 | 73 | 141 | 0.0 | 3.5 | 0.00 | 0.00 | 0.00 | 91 | 1009.4 |
| 20260506110504 | 73 | 140 | 0.9 | 3.5 | 0.00 | 0.00 | 0.00 | 91 | 1009.4 |
| 20260506110014 | 73 | 140 | 0.9 | 3.5 | 0.00 | 0.00 | 0.00 | 91 | 1009.4 |
| 20260506105505 | 73 | 140 | 0.0 | 2.6 | 0.00 | 0.00 | 0.00 | 91 | 1009.4 |
| 20260506105006 | 73 | 139 | 0.0 | 2.6 | 0.00 | 0.00 | 0.00 | 91 | 1009.4 |
| 20260506104513 | 73 | 139 | 0.0 | 2.6 | 0.00 | 0.00 | 0.00 | 91 | 1009.4 |
| 20260506104003 | 73 | 139 | 0.9 | 2.6 | 0.00 | 0.00 | 0.00 | 91 | 1009.5 |
| 20260506103508 | 73 | 139 | 0.9 | 2.6 | 0.00 | 0.00 | 0.00 | 91 | 1009.3 |
| 20260506103024 | 73 | 139 | 0.0 | 2.6 | 0.00 | 0.00 | 0.00 | 91 | 1009.3 |
| 20260506102504 | 73 | 139 | 0.0 | 2.6 | 0.00 | 0.00 | 0.00 | 91 | 1009.2 |
| 20260506102004 | 73 | 139 | 0.9 | 2.6 | 0.00 | 0.00 | 0.00 | 90 | 1009.1 |
| 20260506101504 | 73 | 139 | 0.0 | 2.6 | 0.00 | 0.00 | 0.00 | 90 | 1009.1 |
| 20260506101005 | 74 | 139 | 0.0 | 2.6 | 0.00 | 0.00 | 0.00 | 90 | 1009.1 |
| 20260506100504 | 74 | 139 | 0.0 | 2.6 | 0.00 | 0.00 | 0.00 | 90 | 1009.0 |
| 20260506100012 | 74 | 139 | 0.0 | 2.6 | 0.00 | 0.00 | 0.00 | 90 | 1008.9 |
| 20260506095506 | 74 | 139 | 0.0 | 1.7 | 0.00 | 0.00 | 0.00 | 89 | 1008.8 |
| 20260506095007 | 74 | 139 | 0.0 | 2.6 | 0.00 | 0.00 | 0.00 | 89 | 1008.8 |
| 20260506094515 | 74 | 139 | 0.0 | 3.5 | 0.00 | 0.00 | 0.00 | 89 | 1008.8 |
| 20260506094005 | 74 | 139 | 0.9 | 3.5 | 0.00 | 0.00 | 0.00 | 89 | 1008.7 |
| 20260506093507 | 74 | 139 | 0.9 | 2.6 | 0.00 | 0.00 | 0.00 | 89 | 1008.6 |
| 20260506093021 | 74 | 139 | 0.0 | 3.5 | 0.00 | 0.00 | 0.00 | 88 | 1008.5 |
| 20260506092505 | 74 | 139 | 0.0 | 3.5 | 0.00 | 0.00 | 0.00 | 88 | 1008.5 |
| 20260506092011 | 74 | 136 | 0.0 | 2.6 | 0.00 | 0.00 | 0.00 | 88 | 1008.5 |
| 20260506091506 | 74 | 136 | 0.0 | 2.6 | 0.00 | 0.00 | 0.00 | 88 | 1008.5 |
| 20260506091003 | 74 | 136 | 0.9 | 3.5 | 0.00 | 0.00 | 0.00 | 88 | 1008.5 |
| 20260506090503 | 74 | 136 | 0.9 | 3.5 | 0.00 | 0.00 | 0.00 | 88 | 1008.5 |
| 20260506090017 | 74 | 134 | 0.0 | 4.3 | 0.00 | 0.00 | 0.00 | 88 | 1008.5 |
| 20260506085503 | 74 | 138 | 0.9 | 4.3 | 0.00 | 0.00 | 0.00 | 88 | 1008.5 |
| 20260506085005 | 74 | 84 | 1.7 | 4.3 | 0.00 | 0.00 | 0.00 | 88 | 1008.3 |
| 20260506084525 | 74 | 131 | 0.0 | 3.5 | 0.00 | 0.00 | 0.00 | 88 | 1008.2 |
| 20260506084005 | 74 | 126 | 0.9 | 3.5 | 0.00 | 0.00 | 0.00 | 88 | 1008.4 |
| 20260506083508 | 74 | 169 | 0.9 | 5.2 | 0.00 | 0.00 | 0.00 | 88 | 1008.5 |
| 20260506083008 | 74 | 127 | 0.0 | 5.2 | 0.00 | 0.00 | 0.00 | 88 | 1008.3 |
| 20260506082507 | 74 | 179 | 0.9 | 3.5 | 0.00 | 0.00 | 0.00 | 87 | 1008.3 |
| 20260506082006 | 74 | 175 | 0.9 | 5.2 | 0.00 | 0.00 | 0.00 | 87 | 1008.2 |
| 20260506081506 | 74 | 184 | 0.9 | 5.2 | 0.00 | 0.00 | 0.00 | 87 | 1008.3 |
| 20260506081009 | 74 | 193 | 0.9 | 6.1 | 0.00 | 0.00 | 0.00 | 87 | 1008.4 |
| 20260506080507 | 74 | 192 | 1.7 | 7.0 | 0.00 | 0.00 | 0.00 | 87 | 1008.5 |
| 20260506073508 | 74 | 157 | 1.7 | 6.1 | 0.00 | 0.00 | 0.00 | 87 | 1008.3 |
| 20260506073010 | 74 | 197 | 0.9 | 7.0 | 0.00 | 0.00 | 0.00 | 87 | 1008.4 |
| 20260506072507 | 74 | 157 | 1.7 | 7.8 | 0.00 | 0.00 | 0.00 | 87 | 1008.5 |
| 20260506072007 | 74 | 127 | 3.5 | 7.8 | 0.00 | 0.00 | 0.00 | 87 | 1008.4 |
| 20260506071509 | 74 | 112 | 1.7 | 6.1 | 0.00 | 0.00 | 0.00 | 87 | 1008.5 |
| 20260506071008 | 74 | 156 | 1.7 | 6.1 | 0.00 | 0.00 | 0.00 | 87 | 1008.5 |
| 20260506070507 | 74 | 165 | 1.7 | 10.4 | 0.00 | 0.00 | 0.00 | 87 | 1008.4 |
| 20260506062506 | 75 | 187 | 0.9 | 5.2 | 0.00 | 0.00 | 0.00 | 87 | 1008.3 |
| 20260506062009 | 75 | 168 | 1.7 | 5.2 | 0.00 | 0.00 | 0.00 | 87 | 1008.2 |
| 20260506061521 | 75 | 156 | 0.0 | 5.2 | 0.00 | 0.00 | 0.00 | 87 | 1008.5 |
| 20260506061008 | 75 | 157 | 0.9 | 7.0 | 0.00 | 0.00 | 0.00 | 87 | 1008.2 |
| 20260506060505 | 75 | 193 | 1.7 | 7.0 | 0.00 | 0.00 | 0.00 | 88 | 1008.1 |
| 20260506051007 | 75 | 159 | 1.7 | 4.3 | 0.00 | 0.00 | 0.00 | 88 | 1008.6 |
| 20260506050507 | 75 | 136 | 0.9 | 4.3 | 0.00 | 0.00 | 0.00 | 88 | 1008.6 |
| 20260506045007 | 75 | 128 | 0.9 | 5.2 | 0.00 | 0.00 | 0.00 | 88 | 1008.2 |
| 20260506044532 | 75 | 122 | 1.7 | 7.0 | 0.00 | 0.00 | 0.00 | 88 | 1008.3 |
| 20260506044008 | 75 | 107 | 0.9 | 7.0 | 0.00 | 0.00 | 0.00 | 88 | 1008.5 |
| 20260506043510 | 75 | 215 | 1.7 | 6.1 | 0.00 | 0.00 | 0.00 | 88 | 1008.5 |
| 20260506043024 | 75 | 174 | 2.6 | 5.2 | 0.00 | 0.00 | 0.00 | 88 | 1008.6 |
| 20260506042510 | 75 | 156 | 0.9 | 4.3 | 0.00 | 0.00 | 0.00 | 87 | 1008.5 |
| 20260506042008 | 75 | 154 | 1.7 | 5.2 | 0.00 | 0.00 | 0.00 | 87 | 1008.2 |
| 20260506041538 | 75 | 105 | 0.9 | 5.2 | 0.00 | 0.00 | 0.00 | 87 | 1008.2 |
| 20260506041012 | 75 | 166 | 1.7 | 5.2 | 0.00 | 0.00 | 0.00 | 87 | 1008.2 |
| 20260506040507 | 75 | 165 | 0.9 | 5.2 | 0.00 | 0.00 | 0.00 | 87 | 1008.2 |
| 20260506040013 | 75 | 120 | 1.7 | 5.2 | 0.00 | 0.00 | 0.00 | 87 | 1008.1 |
| 20260506035504 | 75 | 103 | 0.9 | 7.8 | 0.00 | 0.00 | 0.00 | 86 | 1008.1 |
| 20260506035010 | 75 | 212 | 1.7 | 7.8 | 0.00 | 0.00 | 0.00 | 86 | 1008.0 |
| 20260506034504 | 75 | 124 | 1.7 | 5.2 | 0.00 | 0.00 | 0.00 | 86 | 1007.9 |
| 20260506034004 | 75 | 130 | 0.9 | 5.2 | 0.00 | 0.00 | 0.00 | 86 | 1007.7 |
| 20260506033503 | 75 | 162 | 0.9 | 4.3 | 0.00 | 0.00 | 0.00 | 85 | 1007.9 |
| 20260506033004 | 75 | 155 | 0.9 | 4.3 | 0.00 | 0.00 | 0.00 | 85 | 1007.8 |
| 20260506032503 | 75 | 154 | 0.9 | 3.5 | 0.00 | 0.00 | 0.00 | 85 | 1007.9 |
| 20260506032005 | 75 | 169 | 0.9 | 3.5 | 0.00 | 0.00 | 0.00 | 85 | 1007.7 |
| 20260506031506 | 75 | 171 | 0.9 | 2.6 | 0.00 | 0.00 | 0.00 | 85 | 1007.7 |
| 20260506031006 | 75 | 171 | 0.0 | 1.7 | 0.00 | 0.00 | 0.00 | 84 | 1007.6 |
| 20260506030502 | 75 | 171 | 0.9 | 2.6 | 0.00 | 0.00 | 0.00 | 84 | 1007.5 |
| 20260506030006 | 75 | 172 | 0.0 | 2.6 | 0.00 | 0.00 | 0.00 | 84 | 1007.4 |
| 20260506025508 | 76 | 172 | 0.0 | 2.6 | 0.00 | 0.00 | 0.00 | 83 | 1007.4 |
| 20260506025004 | 76 | 172 | 0.0 | 3.5 | 0.00 | 0.00 | 0.00 | 83 | 1007.3 |
| 20260506024515 | 76 | 172 | 0.0 | 4.3 | 0.00 | 0.00 | 0.00 | 83 | 1007.2 |
| 20260506024011 | 76 | 174 | 0.0 | 4.3 | 0.00 | 0.00 | 0.00 | 83 | 1007.1 |
| 20260506023504 | 76 | 173 | 0.0 | 2.6 | 0.00 | 0.00 | 0.00 | 82 | 1007.0 |
| 20260506023012 | 76 | 169 | 0.0 | 4.3 | 0.00 | 0.00 | 0.00 | 82 | 1006.9 |
| 20260506022503 | 77 | 169 | 0.0 | 4.3 | 0.00 | 0.00 | 0.00 | 82 | 1006.9 |
| 20260506022004 | 77 | 148 | 0.9 | 3.5 | 0.00 | 0.00 | 0.00 | 82 | 1006.8 |
| 20260506021503 | 77 | 156 | 0.0 | 5.2 | 0.00 | 0.00 | 0.00 | 81 | 1006.8 |
| 20260506021009 | 77 | 157 | 0.9 | 5.2 | 0.00 | 0.00 | 0.00 | 81 | 1006.7 |
| 20260506020510 | 77 | 141 | 0.0 | 2.6 | 0.00 | 0.00 | 0.00 | 81 | 1006.6 |
| 20260506020006 | 77 | 143 | 0.9 | 2.6 | 0.00 | 0.00 | 0.00 | 81 | 1006.6 |
| 20260506015503 | 77 | 144 | 0.9 | 2.6 | 0.00 | 0.00 | 0.00 | 81 | 1006.7 |
| 20260506015003 | 77 | 144 | 0.0 | 3.5 | 0.00 | 0.00 | 0.00 | 81 | 1006.6 |
| 20260506014514 | 77 | 144 | 0.9 | 3.5 | 0.00 | 0.00 | 0.00 | 80 | 1006.4 |
| 20260506014007 | 77 | 179 | 0.0 | 3.5 | 0.00 | 0.00 | 0.00 | 80 | 1006.3 |
| 20260506013503 | 78 | 146 | 0.0 | 3.5 | 0.00 | 0.00 | 0.00 | 79 | 1006.3 |
| 20260506013014 | 78 | 136 | 0.9 | 3.5 | 0.00 | 0.00 | 0.00 | 79 | 1006.3 |
| 20260506012507 | 78 | 155 | 0.9 | 3.5 | 0.00 | 0.00 | 0.00 | 78 | 1006.2 |
| 20260506012008 | 78 | 156 | 0.9 | 3.5 | 0.00 | 0.00 | 0.00 | 78 | 1006.3 |
| 20260506011531 | 78 | 158 | 0.9 | 4.3 | 0.00 | 0.00 | 0.00 | 77 | 1006.2 |
| 20260506011005 | 78 | 191 | 0.9 | 4.3 | 0.00 | 0.00 | 0.00 | 77 | 1006.1 |
| 20260506010502 | 79 | 140 | 0.0 | 5.2 | 0.00 | 0.00 | 0.00 | 76 | 1006.1 |
| 20260506010007 | 79 | 140 | 1.7 | 5.2 | 0.00 | 0.00 | 0.00 | 76 | 1006.1 |
| 20260506005503 | 79 | 143 | 0.9 | 4.3 | 0.00 | 0.00 | 0.00 | 76 | 1006.1 |
| 20260506005007 | 80 | 139 | 0.9 | 4.3 | 0.00 | 0.00 | 0.00 | 75 | 1006.1 |
| 20260506004516 | 80 | 141 | 0.9 | 4.3 | 0.00 | 0.00 | 0.00 | 75 | 1006.1 |
| 20260506004007 | 80 | 152 | 0.9 | 3.5 | 0.00 | 0.00 | 0.00 | 75 | 1006.2 |
| 20260506003505 | 80 | 154 | 0.9 | 5.2 | 0.00 | 0.00 | 0.00 | 75 | 1006.3 |
| 20260506003012 | 80 | 156 | 1.7 | 5.2 | 0.00 | 0.00 | 0.00 | 74 | 1006.3 |
| 20260506002507 | 80 | 157 | 1.7 | 5.2 | 0.00 | 0.00 | 0.00 | 74 | 1006.4 |
| 20260506002005 | 80 | 124 | 0.9 | 4.3 | 0.00 | 0.00 | 0.00 | 75 | 1006.4 |
| 20260506001514 | 81 | 176 | 1.7 | 4.3 | 0.00 | 0.00 | 0.00 | 74 | 1006.4 |
| 20260506001008 | 81 | 134 | 1.7 | 4.3 | 0.00 | 0.00 | 0.00 | 74 | 1006.3 |
| 20260506000505 | 81 | 147 | 0.0 | 4.3 | 0.00 | 0.00 | 0.00 | 74 | 1006.3 |
| 20260506000020 | 81 | 148 | 1.7 | 5.2 | 0.00 | 0.00 | 0.00 | 72 | 1006.4 |
| 20260505235502 | 81 | 158 | 0.0 | 5.2 | 0.00 | 0.00 | 0.00 | 73 | 1006.4 |
| 20260505235003 | 81 | 168 | 0.9 | 4.3 | 0.00 | 0.00 | 0.00 | 73 | 1006.4 |
| 20260505234509 | 81 | 181 | 0.9 | 4.3 | 0.00 | 0.00 | 0.00 | 72 | 1006.5 |
| 20260505234007 | 81 | 159 | 0.9 | 4.3 | 0.00 | 0.00 | 0.00 | 72 | 1006.4 |
| 20260505233504 | 81 | 102 | 0.9 | 6.1 | 0.00 | 0.00 | 0.00 | 71 | 1006.4 |
| 20260505233022 | 81 | 117 | 1.7 | 6.1 | 0.00 | 0.00 | 0.00 | 71 | 1006.4 |
| 20260505232505 | 82 | 201 | 1.7 | 5.2 | 0.00 | 0.00 | 0.00 | 71 | 1006.3 |
| 20260505232010 | 82 | 163 | 1.7 | 6.1 | 0.00 | 0.00 | 0.00 | 71 | 1006.2 |
| 20260505231516 | 82 | 186 | 1.7 | 6.1 | 0.00 | 0.00 | 0.00 | 71 | 1006.1 |
| 20260505231004 | 82 | 176 | 1.7 | 7.8 | 0.00 | 0.00 | 0.00 | 71 | 1006.1 |
| 20260505230505 | 82 | 128 | 1.7 | 7.8 | 0.00 | 0.00 | 0.00 | 71 | 1006.0 |
| 20260505230021 | 82 | 138 | 1.7 | 7.0 | 0.00 | 0.00 | 0.00 | 71 | 1006.1 |
| 20260505225507 | 82 | 167 | 1.7 | 7.0 | 0.00 | 0.00 | 0.00 | 71 | 1006.0 |
| 20260505225007 | 82 | 145 | 1.7 | 6.1 | 0.00 | 0.00 | 0.00 | 70 | 1005.9 |
| 20260505224524 | 82 | 86 | 1.7 | 6.1 | 0.00 | 0.00 | 0.00 | 71 | 1005.9 |
| 20260505224002 | 82 | 172 | 0.9 | 6.1 | 0.00 | 0.00 | 0.00 | 72 | 1006.0 |
| 20260505223505 | 82 | 93 | 2.6 | 6.1 | 0.00 | 0.00 | 0.00 | 71 | 1006.1 |
| 20260505223016 | 82 | 150 | 2.6 | 7.0 | 0.00 | 0.00 | 0.00 | 71 | 1006.1 |
| 20260505222503 | 82 | 90 | 1.7 | 7.0 | 0.00 | 0.00 | 0.00 | 71 | 1006.0 |
| 20260505222012 | 82 | 175 | 1.7 | 9.6 | 0.00 | 0.00 | 0.00 | 72 | 1006.0 |
| 20260505221510 | 82 | 203 | 2.6 | 9.6 | 0.00 | 0.00 | 0.00 | 71 | 1005.9 |
| 20260505221006 | 82 | 147 | 2.6 | 9.6 | 0.00 | 0.00 | 0.00 | 71 | 1005.9 |
| 20260505220507 | 82 | 224 | 1.7 | 8.7 | 0.00 | 0.00 | 0.00 | 71 | 1006.0 |
| 20260505220036 | 82 | 171 | 1.7 | 11.3 | 0.00 | 0.00 | 0.00 | 70 | 1006.0 |
| 20260505215510 | 83 | 185 | 2.6 | 11.3 | 0.00 | 0.00 | 0.00 | 70 | 1006.1 |
| 20260505215005 | 84 | 141 | 2.6 | 8.7 | 0.00 | 0.00 | 0.00 | 69 | 1006.1 |
| 20260505214528 | 83 | 213 | 1.7 | 8.7 | 0.00 | 0.00 | 0.00 | 71 | 1006.1 |
| 20260505214007 | 83 | 217 | 3.5 | 8.7 | 0.00 | 0.00 | 0.00 | 69 | 1006.1 |
| 20260505213508 | 83 | 127 | 2.6 | 7.0 | 0.00 | 0.00 | 0.00 | 69 | 1006.1 |
| 20260505213029 | 83 | 113 | 1.7 | 7.0 | 0.00 | 0.00 | 0.00 | 69 | 1006.2 |
| 20260505212505 | 83 | 170 | 1.7 | 7.8 | 0.00 | 0.00 | 0.00 | 70 | 1006.4 |
| 20260505212004 | 83 | 148 | 1.7 | 7.8 | 0.00 | 0.00 | 0.00 | 69 | 1006.5 |